15 daagse weersverwachting Leganťs (ES)

  • Overzicht
  • Per uur
  • 15 dagen
  • Extra
  • Vergelijk
  • Kaarten
  • Dagkaart
  • Meer »
  • Info
  • Statistieken
  • Directe link
    Temp 6h Neerslag Wind  
 08:00     20:39    Daglengte: 12:39 Vandaag
08:00
14.4 mm
6
14:00
20.1 mm
5
20:00
20.4 mm
3
 07:58     20:40    Daglengte: 12:42 Morgen
02:00
21.5 mm
4
08:00
33.5 mm
3
14:00
11°
16.4 mm
3
20:00
11°
11.9 mm
2
 07:56     20:41    Daglengte: 12:45 Donderdag 02 Apr
02:00
 
1
08:00
 
1
14:00
13°
19.6 mm
3
20:00
13°
 
3
Locatie info
Region: Madrid
Latitude: 40.3280°N
Longitude: -3.7652°E
672 masl
Postcode: 28911
Temp/Neerslag /Baro Onweer/DauwpuntSneeuw
    Temp Baro 1h Neerslag Dauwpunt Wind UV BewolkingSneeuw  
 08:00     20:39    Daglengte: 12:39 Vandaag
05:00
Voelt als: -4.1°
1009.7 hPa 2.0 mm
82%
-0.1°
7
Windvlaag: -3.6 km/h
91%4 cm
06:00
Voelt als: -3.8°
1009.2 hPa 2.3 mm
82%
0.2°
6
Windvlaag: -3.5 km/h
91%4 cm
07:00
Voelt als: -3.6°
1008.9 hPa 2.6 mm
82%
0.4°
6
Windvlaag: -3.8 km/h
91%5 cm
08:00
Voelt als: -3.1°
1008.8 hPa 2.8 mm
82%
0.6°
6
Windvlaag: -3.7 km/h
91%5 cm
09:00
Voelt als: -2.2°
1008.7 hPa 2.9 mm
82%
1.2°
5
Windvlaag: -3.2 km/h
91%5 cm
10:00
Voelt als: -1.6°
1008.8 hPa 3.0 mm
82%
1.7°
5
Windvlaag: -3.1 km/h
91%4 cm
11:00
Voelt als: -0.8°
1008.8 hPa 3.1 mm
82%
2.3°
5
Windvlaag: -2.8 km/h
91%4 cm
12:00
Voelt als: 1.4°
1008.8 hPa 3.3 mm
82%
3.4°
4
Windvlaag: -2.4 km/h
91%3 cm
13:00
Voelt als: 2.9°
1008.5 hPa 3.9 mm
82%
4.4°
5
Windvlaag: -1.8 km/h
90%3 cm
14:00
Voelt als: 3.5°
1008.3 hPa 3.9 mm
82%
4.7°
5
Windvlaag: -1.6 km/h
88%2 cm
15:00
Voelt als: 5.2°
1007.8 hPa 3.5 mm
82%
6.0°
4
Windvlaag: -1.9 km/h
85%2 cm
16:00
Voelt als: 6.5°
1007.2 hPa 3.3 mm
82%
6.9°
4
Windvlaag: -0.9 km/h
90%2 cm
17:00
Voelt als: 7.3°
1006.9 hPa 3.3 mm
82%
7.2°
3
Windvlaag: -1.7 km/h
81%1 cm
18:00
Voelt als: 7.4°
1006.8 hPa 3.2 mm
82%
7.5°
4
Windvlaag: -1.8 km/h
86%1 cm
19:00
Voelt als: 7.0°
1007.1 hPa 3.5 mm
82%
7.0°
4
Windvlaag: -1.4 km/h
77%1 cm
20:00
Voelt als: 7.2°
1007.5 hPa 3.6 mm
82%
7.4°
3
Windvlaag: -1.1 km/h
87%1 cm
21:00
Voelt als: 7.1°
1007.8 hPa 3.8 mm
82%
7.2°
3
Windvlaag: -0.8 km/h
87%1 cm
22:00
Voelt als: 6.8°
1008.5 hPa 3.3 mm
82%
7.3°
3
Windvlaag: 1.1 km/h
77%1 cm
23:00
Voelt als: 6.6°
1009.1 hPa 3.3 mm
82%
7.6°
4
Windvlaag: 3.3 km/h
76%1 cm
 07:58     20:40    Daglengte: 12:42 Morgen
00:00
Voelt als: 6.4°
1009.3 hPa 3.6 mm
82%
7.7°
4
Windvlaag: 3.1 km/h
68%1 cm
01:00
Voelt als: 6.1°
1009.5 hPa 3.7 mm
82%
7.5°
5
Windvlaag: 3.1 km/h
82%1 cm
02:00
Voelt als: 6.4°
1009.4 hPa 3.8 mm
82%
7.5°
4
Windvlaag: 2.8 km/h
90%1 cm
03:00
Voelt als: 6.3°
1009.6 hPa 4.7 mm
82%
7.5°
4
Windvlaag: 3.4 km/h
90%1 cm
04:00
Voelt als: 6.1°
1009.3 hPa 6.4 mm
82%
7.2°
4
Windvlaag: 3.3 km/h
90%1 cm
05:00
Voelt als: 6.0°
1009.2 hPa 5.0 mm
82%
7.0°
4
Windvlaag: 2.9 km/h
81%1 cm
06:00
Voelt als: 6.1°
1009.4 hPa 4.7 mm
82%
6.9°
3
Windvlaag: 3.2 km/h
89%1 cm
07:00
Voelt als: 6.2°
1009.7 hPa 6.5 mm
80%
6.8°
3
Windvlaag: 3.1 km/h
69%
08:00
Voelt als: 6.1°
1010.1 hPa 6.2 mm
82%
6.7°
3
Windvlaag: 3.1 km/h
56%
09:00
Voelt als: 6.2°
1010.8 hPa 4.4 mm
82%
6.5°
3
Windvlaag: 3.8 km/h
37%
10:00
Voelt als: 6.9°
1011.4 hPa 6.0 mm
82%
6.3°
3
Windvlaag: 2.8 km/h
53%
11:00
Voelt als: 7.9°
1011.7 hPa 6.1 mm
82%
6.3°
3
Windvlaag: 2.4 km/h
59%
12:00
10°
Voelt als: 8.3°
1012.0 hPa
82%
4.9°
3
Windvlaag: 2.4 km/h
62%
13:00
10°
1012.0 hPa
82%
4.4°
3
Windvlaag: 2.1 km/h
9%
14:00
11°
1011.4 hPa
82%
4.3°
3
Windvlaag: 2.2 km/h
20%
15:00
12°
1010.9 hPa
82%
4.1°
3
Windvlaag: 2.5 km/h
24%
16:00
12°
1010.4 hPa
82%
3.5°
3
Windvlaag: 2.3 km/h
27%
17:00
13°
1009.7 hPa 6.0 mm
82%
3.5°
3
Windvlaag: 2.1 km/h
29%
18:00
12°
1009.5 hPa 5.9 mm
82%
3.7°
2
Windvlaag: 1.7 km/h
26%
19:00
12°
1009.6 hPa
70%
3.7°
2
Windvlaag: 0.8 km/h
9%
20:00
11°
1009.9 hPa
18%
4.1°
2
Windvlaag: 0.5 km/h
25%
21:00
Voelt als: 8.7°
1010.4 hPa
14%
4.1°
2
Windvlaag: 0.4 km/h
23%
22:00
Voelt als: 8.6°
1011.2 hPa
14%
4.3°
1
Windvlaag: 0.2 km/h
33%
23:00
Voelt als: 5.9°
1012.0 hPa
22%
5.1°
2
Windvlaag: 0 km/h
51%
 07:56     20:41    Daglengte: 12:45 Donderdag 02 Apr
00:00
Voelt als: 6.7°
1011.6 hPa
21%
4.7°
1
Windvlaag: 0.1 km/h
33%
01:00
Voelt als: 5.5°
1011.7 hPa
22%
4.3°
1
Windvlaag: 0.5 km/h
57%
02:00
Voelt als: 4.4°
1011.9 hPa
26%
4.2°
1
Windvlaag: 0.7 km/h
48%
03:00
Voelt als: 5.3°
1011.5 hPa
23%
4.4°
1
Windvlaag: 1.1 km/h
76%
04:00
Voelt als: 4.1°
1011.2 hPa
25%
4.4°
2
Windvlaag: 1.2 km/h
86%
05:00
Voelt als: 4.1°
1011.0 hPa
34%
4.1°
2
Windvlaag: 1.2 km/h
59%
06:00
Voelt als: 3.4°
1010.9 hPa
74%
3.7°
2
Windvlaag: 0.7 km/h
53%
07:00
Voelt als: 4.1°
1011.0 hPa
39%
3.9°
1
Windvlaag: 1.5 km/h
52%
08:00
Voelt als: 3.4°
1011.4 hPa
32%
3.6°
1
Windvlaag: 1.5 km/h
75%
09:00
Voelt als: 4.8°
1012.0 hPa
93%
4.6°
1
Windvlaag: 1.2 km/h
92%
10:00
Voelt als: 6.7°
1012.6 hPa 9.9 mm
100%
5.2°
1
Windvlaag: 0.8 km/h
67%
11:00
1012.9 hPa
100%
5.4°
1
Windvlaag: 0.6 km/h
76%
12:00
10°
1013.0 hPa
92%
5.2°
1
Windvlaag: 0.5 km/h
73%
13:00
12°
1012.6 hPa 9.7 mm
24%
4.5°
2
Windvlaag: 0.6 km/h
45%
14:00
13°
1012.2 hPa
22%
4.3°
3
Windvlaag: 0.8 km/h
79%
15:00
13°
1011.9 hPa
29%
5.0°
3
Windvlaag: 5 km/h
85%
16:00
14°
1011.8 hPa
26%
5.5°
3
Windvlaag: 5 km/h
86%
17:00
14°
1011.7 hPa
29%
6.2°
3
Windvlaag: 5.2 km/h
70%
18:00
14°
1011.8 hPa
26%
6.7°
3
Windvlaag: 5.6 km/h
46%
19:00
14°
1011.9 hPa
23%
6.9°
3
Windvlaag: 6.1 km/h
43%
20:00
13°
1012.2 hPa
21%
6.9°
3
Windvlaag: 1.1 km/h
40%
21:00
12°
1012.9 hPa
21%
5.8°
2
Windvlaag: 9.6 km/h
32%
22:00
10°
1013.8 hPa
21%
4.9°
3
Windvlaag: 11.5 km/h
26%
23:00
10°
Voelt als: 8.3°
1014.6 hPa
21%
4.3°
3
Windvlaag: 11.9 km/h
21%
 07:55     20:42    Daglengte: 12:47 Vrijdag 03 Apr
00:00
Voelt als: 7.2°
1015.2 hPa
21%
3.7°
3
Windvlaag: 10.3 km/h
15%
01:00
Voelt als: 6.2°
1015.7 hPa
21%
3.2°
3
Windvlaag: 10.7 km/h
10%
02:00
Voelt als: 5.3°
1016.1 hPa
21%
2.6°
3
Windvlaag: 1.3 km/h
4%
03:00
Voelt als: 2.4°
1017.3 hPa   1.2°
3
Windvlaag: 0 km/h
6%
Temp/Neerslag /Baro Onweer/DauwpuntSneeuw
    Temp Baro Neerslag Dauwpunt Wind BewolkingSneeuw  
 08:00     20:39    Daglengte: 12:39 Vandaag
05:00
Voelt als: -4.1°
1009.7 hPa 6.7 mm -0.1°
7
91%4 cm
08:00
Voelt als: -3.1°
1008.8 hPa 7.7 mm 0.6°
6
91%5 cm
11:00
Voelt als: -0.8°
1008.8 hPa 9.0 mm 2.3°
5
91%4 cm
14:00
Voelt als: 3.5°
1008.3 hPa 11.1 mm 4.7°
5
88%2 cm
17:00
Voelt als: 7.3°
1006.9 hPa 10.1 mm 7.2°
3
81%1 cm
20:00
Voelt als: 7.2°
1007.5 hPa 10.3 mm 7.4°
3
87%1 cm
23:00
Voelt als: 6.6°
1009.1 hPa 10.5 mm 7.6°
4
76%1 cm
 07:58     20:40    Daglengte: 12:42 Morgen
02:00
Voelt als: 6.4°
1009.4 hPa 11.1 mm 7.5°
4
90%1 cm
05:00
Voelt als: 6.0°
1009.2 hPa 16.1 mm 7.0°
4
81%1 cm
08:00
Voelt als: 6.1°
1010.1 hPa 17.4 mm 6.7°
3
56%
11:00
Voelt als: 7.9°
1011.7 hPa 16.4 mm 6.3°
3
59%
14:00
11°
1011.4 hPa   4.3°
3
20%
17:00
13°
1009.7 hPa 6.0 mm 3.5°
3
29%
20:00
11°
1009.9 hPa 5.9 mm 4.1°
2
25%
23:00
Voelt als: 5.9°
1012.0 hPa   5.1°
2
51%
 07:56     20:41    Daglengte: 12:45 Donderdag 02 Apr
02:00
Voelt als: 4.4°
1011.9 hPa   4.2°
1
48%
05:00
Voelt als: 4.1°
1011.0 hPa   4.1°
2
59%
08:00
Voelt als: 3.4°
1011.4 hPa   3.6°
1
75%
11:00
1012.9 hPa 9.9 mm 5.4°
1
76%
14:00
13°
1012.2 hPa 9.7 mm 4.3°
3
79%
17:00
14°
1011.7 hPa   6.2°
3
70%
20:00
13°
1012.2 hPa   6.9°
3
40%
23:00
10°
Voelt als: 8.3°
1014.6 hPa   4.3°
3
21%
 07:55     20:42    Daglengte: 12:47 Vrijdag 03 Apr
02:00
Voelt als: 5.3°
1016.1 hPa   2.6°
3
4%
05:00
Voelt als: 1.2°
1017.8 hPa 21.0 mm 0.7°
2
3%
08:00
Voelt als: -0.5°
1018.3 hPa 21.0 mm -0.1°
2
0%
11:00
Voelt als: 6.1°
1017.6 hPa 21.0 mm 1.2°
2
0%
14:00
13°
1017.0 hPa 21.0 mm -0.2°
2
0%
17:00
14°
1015.8 hPa 21.0 mm -0.0°
1
0%
20:00
15°
1014.7 hPa 21.0 mm 0.6°
0
0%
23:00
11°
1016.1 hPa 21.0 mm 2.6°
2
0%
 07:53     20:43    Daglengte: 12:50 Zaterdag 04 Apr
02:00
Voelt als: 5.1°
1017.3 hPa 21.0 mm 3.3°
3
0%
05:00
Voelt als: 3.6°
1017.9 hPa 21.0 mm 3.6°
3
2%
08:00
Voelt als: 2.1°
1018.6 hPa 21.0 mm 3.7°
3
4%
11:00
10°
1017.5 hPa 21.0 mm 5.1°
4
36%
14:00
15°
1016.5 hPa 21.0 mm 5.0°
5
67%
17:00
16°
1016.0 hPa 21.0 mm 4.9°
5
80%
20:00
15°
1015.7 hPa 21.1 mm 5.2°
5
92%
23:00
13°
1018.4 hPa 21.2 mm 6.6°
5
92%
 07:52     20:44    Daglengte: 12:52 Zondag 05 Apr
02:00
10°
1021.0 hPa 21.9 mm 7.1°
4
92%
05:00
Voelt als: 7.2°
1022.2 hPa 23.5 mm 6.0°
4
91%
08:00
Voelt als: 6.4°
1023.6 hPa 24.4 mm 4.8°
3
91%
11:00
12°
1023.7 hPa 25.5 mm 6.2°
3
72%
14:00
16°
1023.7 hPa 26.0 mm 6.9°
2
53%
17:00
16°
1023.3 hPa 26.6 mm 7.9°
2
70%
20:00
15°
1023.0 hPa 26.6 mm 8.8°
1
87%
23:00
13°
1024.6 hPa 26.8 mm 8.2°
2
83%
 07:50     20:45    Daglengte: 12:55 Maandag 06 Apr
02:00
10°
1026.0 hPa 26.9 mm 7.4°
2
80%
05:00
10°
Voelt als: 8.6°
1026.7 hPa 27.0 mm 6.8°
2
83%
08:00
Voelt als: 7.8°
1027.5 hPa 27.3 mm 6.1°
3
85%
11:00
13°
1027.5 hPa 27.5 mm 7.3°
2
79%
14:00
16°
1027.4 hPa 27.7 mm 8.0°
2
73%
17:00
17°
1026.2 hPa 27.9 mm 10.2°
2
71%
20:00
17°
1025.0 hPa 29.8 mm 12.3°
1
68%
23:00
14°
1026.2 hPa 30.8 mm 9.4°
2
34%
 07:48     20:46    Daglengte: 12:58 Dinsdag 07 Apr
02:00
11°
1027.2 hPa 62.0 mm 6.4°
3
1%
08:00
Voelt als: 6.7°
1028.2 hPa 62.7 mm 5.5°
2
39%
14:00
19°
1026.5 hPa 63.1 mm 6.6°
3
24%
20:00
18°
1024.0 hPa 63.4 mm 7.7°
2
4%
 07:47     20:47    Daglengte: 13:00 Woensdag 08 Apr
02:00
10°
1026.5 hPa 63.5 mm 4.5°
2
90%
08:00
Voelt als: 8.2°
1026.9 hPa 63.8 mm 4.8°
2
90%
14:00
17°
1026.8 hPa 63.9 mm 8.7°
1
91%
20:00
17°
1024.8 hPa 63.9 mm 10.4°
2
82%
 07:45     20:48    Daglengte: 13:03 Donderdag 09 Apr
02:00
13°
1025.4 hPa 63.9 mm 10.6°
1
88%
08:00
Voelt als: 8.3°
1024.1 hPa 63.9 mm 8.1°
1
32%
14:00
19°
1016.6 hPa 64.1 mm 12.5°
5
1%
20:00
19°
1015.9 hPa 64.6 mm 11.8°
4
1%
 07:44     20:49    Daglengte: 13:05 Vrijdag 10 Apr
02:00
11°
1021.0 hPa 0.2 mm 7.9°
0
48%
08:00
1021.1 hPa 0.2 mm 6.9°
1
45%
14:00
17°
1020.6 hPa 0.5 mm 7.5°
1
55%
20:00
17°
1019.0 hPa 0.7 mm 8.7°
1
48%
 07:42     20:50    Daglengte: 13:08 Zaterdag 11 Apr
02:00
11°
1022.1 hPa 0.3 mm 7.0°
1
42%
08:00
Voelt als: 8.0°
1022.6 hPa 0.1 mm 5.6°
1
41%
14:00
17°
1021.4 hPa 0.2 mm 5.9°
0
49%
20:00
17°
1019.3 hPa 0.6 mm 7.5°
1
44%
 07:41     20:51    Daglengte: 13:10 Zondag 12 Apr
02:00
10°
Voelt als: 9.6°
1021.7 hPa 0.2 mm 5.7°
1
36%
08:00
Voelt als: 7.0°
1021.2 hPa 0.2 mm 4.8°
1
32%
14:00
17°
1018.8 hPa 0.3 mm 5.6°
1
31%
20:00
17°
1016.2 hPa 0.7 mm 7.5°
0
35%
 07:39     20:52    Daglengte: 13:13 Maandag 13 Apr
02:00
10°
Voelt als: 9.7°
1018.6 hPa 0.7 mm 4.8°
1
35%
08:00
Voelt als: 7.1°
1018.7 hPa 0.2 mm 3.8°
1
22%
14:00
17°
1016.6 hPa 0.2 mm 4.2°
0
22%
20:00
16°
1014.7 hPa 0.3 mm 5.5°
1
30%
 07:38     20:53    Daglengte: 13:15 Dinsdag 14 Apr
02:00
Voelt als: 8.9°
1017.8 hPa   4.6°
1
27%
08:00
Voelt als: 6.1°
1018.3 hPa 0.1 mm 3.8°
1
27%
14:00
16°
1016.6 hPa 0.2 mm 3.6°
1
25%
20:00
16°
1015.6 hPa 0.6 mm 4.5°
1
28%
 07:36     20:54    Daglengte: 13:18 Woensdag 15 Apr
02:00
Voelt als: 8.3°
1019.2 hPa   3.4°
1
23%
  CAPE Lifted Index Hail Supercell Tornado SRH 3km CL BTM PRES CL TOP PRES Swiss DWD icon SMHI TS
 08:00     20:39    Daglengte: 12:39 Vandaag
05:00 0 J/kg 2.6 K 0 % 0 % 0 % 0 m²/s² 0 0 2.81 73
06:00 0 J/kg 3.2 K 0 % 0 % 0 % 0 m²/s² 0 0 3.5 61
07:00 0 J/kg 3.8 K 0 % 0 % 0 % 0 m²/s² 0 0 4.1 61
08:00 0 J/kg 3.7 K 0 % 0 % 0 % 0 m²/s² 0 0 4.03 61
09:00 0 J/kg 3.9 K 0 % 0 % 0 % 0 m²/s² 0 0 4.2 61
10:00 0 J/kg 2.7 K 0 % 0 % 0 % 0 m²/s² 0 0 3 61
11:00 1 J/kg 2.3 K 0 % 0 % 0 % 0 m²/s² 0 0 2.54 61
12:00 1 J/kg 1.1 K 0 % 0 % 0 % 0 m²/s² 0 0 1.46 61
13:00 18 J/kg 1.3 K 0 % 0 % 0 % 0 m²/s² 0 0 1.66 61
14:00 7 J/kg 1.1 K 0 % 0 % 0 % 0 m²/s² 0 0 1.85 63
15:00 157 J/kg -0.4 K 0 % 0 % 0 % 0 m²/s² 0 0 0.11 61
16:00 256 J/kg -1.0 K 0 % 0 % 0 % 0 m²/s² 0 0 -0.88 61
17:00 159 J/kg -0.3 K 0 % 0 % 0 % 0 m²/s² 0 0 0.33 61
18:00 233 J/kg -0.9 K 0 % 0 % 0 % 0 m²/s² 0 0 0.6 61
19:00 293 J/kg -1.7 K 0 % 0 % 0 % 0 m²/s² 0 0 -0.41 80
20:00 323 J/kg -2.5 K 0 % 0 % 0 % 0 m²/s² 0 0 -1.09 61
21:00 485 J/kg -2.4 K 0 % 0 % 0 % 0 m²/s² 0 0 -1.98 63
22:00 478 J/kg -2.2 K 0 % 0 % 0 % 0 m²/s² 0 0 -1.69 80
23:00 116 J/kg -0.8 K 0 % 0 % 0 % 0 m²/s² 0 0 0.43 80
 07:58     20:40    Daglengte: 12:42 Morgen
00:00 121 J/kg -2.4 K 0 % 0 % 0 % 0 m²/s² 0 0 -1.65 80
01:00 235 J/kg -1.4 K 0 % 0 % 0 % 0 m²/s² 0 0 -1.04 80
02:00 273 J/kg -1.5 K 0 % 0 % 0 % 0 m²/s² 0 0 -1.17 80
03:00 149 J/kg -0.2 K 0 % 0 % 0 % 0 m²/s² 0 0 0.1 80
04:00 38 J/kg 0.2 K 0 % 0 % 0 % 0 m²/s² 0 0 0.86 80
05:00 88 J/kg -0.7 K 0 % 0 % 0 % 0 m²/s² 0 0 -0.04 80
06:00 209 J/kg -0.5 K 0 % 0 % 0 % 0 m²/s² 0 0 0.04 80
07:00 22 J/kg 0.0 K 0 % 0 % 0 % 0 m²/s² 0 0 1.71 80
08:00 70 J/kg -0.1 K 0 % 0 % 0 % 0 m²/s² 0 0 1.43 3
09:00 136 J/kg -0.4 K 0 % 0 % 0 % 0 m²/s² 0 0 0.71 80
10:00 78 J/kg -0.2 K 0 % 0 % 0 % 0 m²/s² 0 0 0.37 80
11:00 10 J/kg 1.3 K 0 % 0 % 0 % 0 m²/s² 0 0 2.44 80
12:00 6 J/kg 2.4 K 0 % 0 % 0 % 0 m²/s² 0 0 5.61 80
13:00 6 J/kg 2.4 K 0 % 0 % 0 % 0 m²/s² 0 0 7.14 80
14:00 16 J/kg 1.8 K 0 % 0 % 0 % 0 m²/s² 0 0 7.23 80
15:00 14 J/kg 1.9 K 0 % 0 % 0 % 0 m²/s² 0 0 6.94 80
16:00 1 J/kg 1.8 K 0 % 0 % 0 % 0 m²/s² 0 0 6.99 2
17:00 2 J/kg 1.3 K 0 % 0 % 0 % 0 m²/s² 0 0 7.48 80
18:00 2 J/kg 0.7 K 0 % 0 % 0 % 0 m²/s² 0 0 7.99 2
19:00 0 J/kg 0.4 K 0 % 0 % 0 % 0 m²/s² 0 0 7.96 1
20:00 1 J/kg 0.1 K 0 % 0 % 0 % 0 m²/s² 0 0 6.46 1
21:00 0 J/kg -0.2 K 0 % 0 % 0 % 0 m²/s² 0 0 4.99 0
22:00 0 J/kg -0.7 K 0 % 0 % 0 % 0 m²/s² 0 0 3.95 0
23:00 0 J/kg -0.5 K 0 % 0 % 0 % 0 m²/s² 0 0 2.26 0
 07:56     20:41    Daglengte: 12:45 Donderdag 02 Apr
00:00 0 J/kg -0.1 K 0 % 0 % 0 % 0 m²/s² 0 0 1.7 0
01:00 0 J/kg 0.2 K 0 % 0 % 0 % 0 m²/s² 0 0 2.45 0
02:00 0 J/kg 0.4 K 0 % 0 % 0 % 0 m²/s² 0 0 1.54 2
03:00 0 J/kg 0.6 K 0 % 0 % 0 % 0 m²/s² 0 0 1.11 2
04:00 0 J/kg 0.6 K 0 % 0 % 0 % 0 m²/s² 0 0 1.8 3
05:00 0 J/kg 0.8 K 0 % 0 % 0 % 0 m²/s² 0 0 2.54 3
06:00 0 J/kg 0.6 K 0 % 0 % 0 % 0 m²/s² 0 0 2.73 3
07:00 0 J/kg 0.2 K 0 % 0 % 0 % 0 m²/s² 0 0 1.55 3
08:00 0 J/kg 0.7 K 0 % 0 % 0 % 0 m²/s² 0 0 2.38 3
09:00 0 J/kg 1.3 K 0 % 0 % 0 % 0 m²/s² 0 0 2.14 3
10:00 0 J/kg 1.5 K 0 % 0 % 0 % 0 m²/s² 0 0 2.37 61
11:00 0 J/kg 1.3 K 0 % 0 % 0 % 0 m²/s² 0 0 1.75 61
12:00 0 J/kg 1.4 K 0 % 0 % 0 % 0 m²/s² 0 0 1.88 3
13:00 0 J/kg 0.5 K 0 % 0 % 0 % 0 m²/s² 0 0 1.34 2
14:00 58 J/kg -0.2 K 0 % 0 % 0 % 0 m²/s² 0 0 0.73 3
15:00 86 J/kg -0.5 K 0 % 0 % 0 % 0 m²/s² 0 0 0.73 3
16:00 93 J/kg -1.0 K 0 % 0 % 0 % 0 m²/s² 0 0 0.59 3
17:00 150 J/kg -0.9 K 0 % 0 % 0 % 0 m²/s² 0 0 1.11 3
18:00 102 J/kg -1.0 K 0 % 0 % 0 % 0 m²/s² 0 0 2.3 2
19:00 9 J/kg -0.4 K 0 % 0 % 0 % 0 m²/s² 0 0 1.97 2
20:00 16 J/kg 0.3 K 0 % 0 % 0 % 0 m²/s² 0 0 1.32 1
21:00 0 J/kg 1.7 K 0 % 0 % 0 % 0 m²/s² 0 0 2.36 0
22:00 0 J/kg 2.8 K 0 % 0 % 0 % 0 m²/s² 0 0 3.64 0
23:00 0 J/kg 3.1 K 0 % 0 % 0 % 0 m²/s² 0 0 4.24 1
 07:55     20:42    Daglengte: 12:47 Vrijdag 03 Apr
00:00 0 J/kg 3.2 K 0 % 0 % 0 % 0 m²/s² 0 0 4.76 1
01:00 0 J/kg 3.3 K 0 % 0 % 0 % 0 m²/s² 0 0 5.55 1
02:00 0 J/kg 3.4 K 0 % 0 % 0 % 0 m²/s² 0 0 6.49 1
03:00 0 J/kg 0.0 K 0 % 0 % 0 % 0 m²/s² 0 0 13.83
Temp Baro Wind Neerslag
  EWN Forecast EWN WRFDA DWD ICON FMI HIRLAM MET Norway GFS
 08:00     20:39    Daglengte: 12:39 Vandaag
05:00 1.2° 1009.7 hPa 6.6 m/s 6.7 mm 0.8° 1006.1 hPa 7.5 m/s 17.5 mm 0.6° 1009.6 hPa 4.8 m/s 7.3 mm 1.7° 1010.3 hPa 6.8 m/s 0.0 mm 1.3° 1010.4 hPa 6.1 m/s 2.1° 1008.3 hPa 8.0 m/s
08:00 1.7° 1008.8 hPa 5.6 m/s 7.7 mm 2.9° 1004.7 hPa 4.8 m/s 35.0 mm 1.3° 1008.9 hPa 4.3 m/s 3.5 mm 1.7° 1009.0 hPa 6.9 m/s 0.0 mm 1.9° 1009.4 hPa 5.4 m/s 3.7° 1007.4 hPa 6.8 m/s
11:00 3.4° 1008.8 hPa 5.4 m/s 9.0 mm 6.6° 1004.8 hPa 6.1 m/s 45.8 mm 3.1° 1009.4 hPa 3.2 m/s 2.5 mm 3.2° 1008.7 hPa 6.0 m/s 0.0 mm 3.9° 1009.4 hPa 4.6 m/s 6.2° 1007.7 hPa 4.0 m/s
14:00 6.7° 1008.3 hPa 4.8 m/s 11.1 mm 11.2° 1005.0 hPa 10.4 m/s 51.8 mm 6.9° 1008.8 hPa 2.2 m/s 5.1 mm 7.7° 1007.6 hPa 6.1 m/s 0.0 mm 6.0° 1008.9 hPa 4.1 m/s 8.0° 1007.6 hPa 5.7 m/s
17:00 9.2° 1006.9 hPa 3.4 m/s 10.1 mm 13.0° 1004.4 hPa 6.3 m/s 53.7 mm 8.6° 1007.4 hPa 3.2 m/s 4.3 mm 10.4° 1005.8 hPa 3.2 m/s 0.0 mm 8.8° 1007.4 hPa 2.8 m/s 8.6° 1006.9 hPa 5.3 m/s
20:00 9.1° 1007.5 hPa 3.4 m/s 10.3 mm 12.1° 1005.0 hPa 5.9 m/s 56.9 mm 8.1° 1008.3 hPa 3.0 m/s 2.5 mm 11.5° 1006.1 hPa 5.0 m/s 0.0 mm 8.8° 1007.9 hPa 2.7 m/s 9.6° 1007.0 hPa 5.0 m/s
23:00 8.9° 1009.1 hPa 4.2 m/s 10.5 mm 10.7° 1006.6 hPa 5.5 m/s 58.9 mm 8.0° 1009.7 hPa 1.6 m/s 3.6 mm 10.0° 1007.9 hPa 5.6 m/s 0.0 mm 8.3° 1009.6 hPa 3.4 m/s 8.6° 1009.2 hPa 4.4 m/s
 07:58     20:40    Daglengte: 12:42 Morgen
02:00 8.6° 1009.4 hPa 3.8 m/s 11.1 mm 10.1° 1008.2 hPa 4.1 m/s 61.2 mm 8.6° 1009.3 hPa 2.4 m/s 2.6 mm 9.7° 1009.0 hPa 5.1 m/s 0.0 mm 7.8° 1010.3 hPa 3.2 m/s 8.2° 1010.0 hPa 4.7 m/s
05:00 8.3° 1009.2 hPa 3.7 m/s 16.1 mm 8.8° 1008.0 hPa 5.3 m/s 78.8 mm 8.3° 1009.1 hPa 2.2 m/s 3.1 mm 9.5° 1009.0 hPa 4.1 m/s 0.0 mm 7.4° 1010.2 hPa 3.3 m/s 8.1° 1009.9 hPa 4.5 m/s
08:00 7.8° 1010.1 hPa 2.7 m/s 17.4 mm 7.5° 1009.5 hPa 3.8 m/s 85.9 mm 8.0° 1009.1 hPa 1.8 m/s 0.7 mm 8.9° 1010.2 hPa 3.1 m/s 0.0 mm 6.4° 1011.1 hPa 2.0 m/s 5.6° 1011.8 hPa 4.1 m/s
11:00 9.5° 1011.7 hPa 2.9 m/s 16.4 mm 8.3° 1011.4 hPa 5.0 m/s 86.9 mm 9.8° 1010.5 hPa 2.8 m/s 1.4 mm 9.5° 1011.4 hPa 2.2 m/s 0.0 mm 9.7° 1012.1 hPa 2.3 m/s 8.5° 1013.1 hPa 3.9 m/s
14:00 11.2° 1011.4 hPa 3.2 m/s 0.0 mm 10.9° 1012.1 hPa 2.7 m/s 87.0 mm 11.4° 1010.5 hPa 3.7 m/s 2.0 mm 10.5° 1010.9 hPa 3.3 m/s 0.0 mm 12.4° 1011.4 hPa 2.0 m/s 11.2° 1012.3 hPa 3.4 m/s
17:00 12.6° 1009.7 hPa 2.5 m/s 6.0 mm 13.1° 1009.8 hPa 3.0 m/s 87.0 mm 11.8° 1009.6 hPa 4.0 m/s 0.7 mm 13.0° 1008.8 hPa 2.1 m/s 0.0 mm 12.8° 1009.6 hPa 0.9 m/s 12.9° 1010.5 hPa 2.7 m/s
20:00 11.0° 1009.9 hPa 1.6 m/s 5.9 mm 12.8° 1009.3 hPa 2.1 m/s 87.0 mm 9.9° 1011.0 hPa 3.5 m/s 0.1 mm 12.3° 1009.2 hPa 0.6 m/s 0.0 mm 10.8° 1009.8 hPa 0.9 m/s 11.8° 1010.4 hPa 2.4 m/s
23:00 7.5° 1012.0 hPa 2.4 m/s 0.0 mm 10.4° 1011.2 hPa 2.7 m/s 87.0 mm 6.9° 1012.2 hPa 1.3 m/s 0.0 mm 7.4° 1012.1 hPa 2.9 m/s 8.6° 1013.0 hPa 3.0 m/s
 07:56     20:41    Daglengte: 12:45 Donderdag 02 Apr
02:00 5.4° 1011.9 hPa 1.5 m/s 0.0 mm 8.9° 1011.0 hPa 2.6 m/s 87.0 mm 5.2° 1012.6 hPa 0.9 m/s 0.0 mm 5.1° 1012.1 hPa 1.5 m/s 6.7° 1013.4 hPa 0.7 m/s
05:00 5.1° 1011.0 hPa 1.5 m/s 0.0 mm 7.8° 1010.0 hPa 3.5 m/s 87.0 mm 4.5° 1011.8 hPa 0.9 m/s 0.0 mm 5.2° 1010.9 hPa 1.3 m/s 6.4° 1012.3 hPa 0.5 m/s
08:00 4.2° 1011.4 hPa 1.2 m/s 0.0 mm 6.8° 1009.3 hPa 6.5 m/s 87.0 mm 4.5° 1012.5 hPa 0.6 m/s 0.0 mm 4.0° 1011.3 hPa 0.5 m/s 6.0° 1012.5 hPa 2.0 m/s
11:00 8.7° 1012.9 hPa 0.9 m/s 9.9 mm 9.3° 1010.7 hPa 4.3 m/s 87.0 mm 7.5° 1014.0 hPa 0.4 m/s 0.5 mm 8.8° 1013.0 hPa 0.5 m/s 9.8° 1012.2 hPa 5.4 m/s
14:00 13.0° 1012.2 hPa 2.9 m/s 9.7 mm 13.5° 1010.6 hPa 4.3 m/s 87.0 mm 13.7° 1012.5 hPa 1.1 m/s 0.0 mm 12.4° 1012.3 hPa 3.1 m/s 14.1° 1011.9 hPa 4.0 m/s
17:00 13.7° 1011.7 hPa 2.5 m/s 0.0 mm 15.2° 1009.2 hPa 5.1 m/s 87.0 mm 15.3° 1011.6 hPa 2.1 m/s 0.0 mm 12.2° 1012.4 hPa 2.2 m/s 15.8° 1010.3 hPa 3.6 m/s
20:00 13.1° 1012.2 hPa 2.5 m/s 0.0 mm 13.9° 1010.1 hPa 7.4 m/s 87.0 mm 14.6° 1012.4 hPa 2.6 m/s 0.0 mm 12.0° 1012.5 hPa 1.4 m/s 12.2° 1011.6 hPa 5.4 m/s
23:00 9.6° 1014.6 hPa 2.6 m/s 0.0 mm 9.7° 1013.3 hPa 7.1 m/s 87.0 mm 10.3° 1014.9 hPa 1.4 m/s 0.0 mm 9.2° 1014.6 hPa 2.2 m/s 10.5° 1015.4 hPa 3.8 m/s
 07:55     20:42    Daglengte: 12:47 Vrijdag 03 Apr
02:00 7.3° 1016.1 hPa 3.0 m/s 0.0 mm 8.0° 1012.8 hPa 5.3 m/s 87.0 mm 8.3° 1016.1 hPa 1.1 m/s 0.0 mm 6.5° 1016.8 hPa 3.1 m/s 8.8° 1016.2 hPa 3.1 m/s
05:00 3.4° 1017.8 hPa 2.3 m/s 21.0 mm 3.0° 1017.9 hPa 2.4 m/s 8.0° 1016.5 hPa 1.7 m/s 21.0 mm
08:00 1.7° 1018.3 hPa 2.0 m/s 21.0 mm 1.3° 1018.4 hPa 2.0 m/s 5.9° 1017.1 hPa 1.7 m/s 21.0 mm
11:00 7.5° 1017.6 hPa 2.2 m/s 21.0 mm 7.3° 1017.8 hPa 2.1 m/s 9.8° 1015.3 hPa 3.1 m/s 21.0 mm
14:00 13.3° 1017.0 hPa 2.2 m/s 21.0 mm 13.3° 1017.3 hPa 2.3 m/s 13.8° 1013.9 hPa 1.7 m/s 21.0 mm
17:00 14.1° 1015.8 hPa 1.3 m/s 21.0 mm 13.9° 1016.1 hPa 1.2 m/s 16.0° 1011.7 hPa 1.5 m/s 21.0 mm
20:00 14.6° 1014.7 hPa 0.3 m/s 21.0 mm 14.6° 1015.0 hPa 0.2 m/s 14.8° 1011.9 hPa 1.2 m/s 21.0 mm
23:00 11.0° 1016.1 hPa 1.8 m/s 21.0 mm 10.9° 1016.2 hPa 1.7 m/s 11.9° 1014.0 hPa 3.0 m/s 21.0 mm
 07:53     20:43    Daglengte: 12:50 Zaterdag 04 Apr
02:00 7.4° 1017.3 hPa 3.3 m/s 21.0 mm 7.2° 1017.5 hPa 3.2 m/s 9.2° 1015.6 hPa 4.7 m/s 21.0 mm
05:00 6.0° 1017.9 hPa 3.1 m/s 21.0 mm 5.8° 1018.2 hPa 3.1 m/s 7.8° 1015.0 hPa 3.6 m/s 21.0 mm
08:00 4.7° 1018.6 hPa 3.1 m/s 21.0 mm 4.5° 1018.9 hPa 3.0 m/s 6.8° 1015.7 hPa 4.3 m/s 21.0 mm
11:00 10.0° 1017.5 hPa 3.9 m/s 21.0 mm 10.0° 1017.8 hPa 3.7 m/s 10.3° 1014.0 hPa 5.7 m/s 21.0 mm
14:00 15.4° 1016.5 hPa 4.5 m/s 21.0 mm 15.5° 1016.8 hPa 4.4 m/s 14.3° 1012.9 hPa 6.2 m/s 21.0 mm
17:00 15.5° 1016.0 hPa 4.6 m/s 21.0 mm 15.3° 1016.4 hPa 4.5 m/s 17.2° 1011.7 hPa 5.7 m/s 21.0 mm
20:00 15.1° 1015.7 hPa 4.9 m/s 21.1 mm 15.2° 1016.0 hPa 4.6 m/s 13.6° 1012.9 hPa 8.3 m/s 21.1 mm
23:00 12.5° 1018.4 hPa 4.6 m/s 21.2 mm 12.6° 1018.7 hPa 4.2 m/s 11.3° 1015.3 hPa 8.7 m/s 21.2 mm
 07:52     20:44    Daglengte: 12:52 Zondag 05 Apr
02:00 10.1° 1021.0 hPa 4.0 m/s 21.9 mm 10.1° 1021.4 hPa 3.8 m/s 10.4° 1016.3 hPa 6.2 m/s 21.9 mm
05:00 9.1° 1022.2 hPa 3.6 m/s 23.5 mm 9.1° 1022.8 hPa 3.3 m/s 9.0° 1015.5 hPa 5.8 m/s 23.5 mm
08:00 8.3° 1023.6 hPa 3.1 m/s 24.4 mm 8.2° 1024.2 hPa 2.9 m/s 8.9° 1016.8 hPa 4.7 m/s 24.4 mm
11:00 11.9° 1023.7 hPa 2.9 m/s 25.5 mm 12.1° 1024.2 hPa 2.6 m/s 9.2° 1017.1 hPa 5.1 m/s 25.5 mm
14:00 15.8° 1023.7 hPa 2.5 m/s 26.0 mm 16.0° 1024.3 hPa 2.4 m/s 14.2° 1017.2 hPa 3.1 m/s 26.0 mm
17:00 15.6° 1023.3 hPa 2.0 m/s 26.6 mm 15.8° 1024.0 hPa 1.9 m/s 13.4° 1016.0 hPa 2.6 m/s 26.6 mm
20:00 15.4° 1023.0 hPa 1.4 m/s 26.6 mm 15.5° 1023.6 hPa 1.4 m/s 14.2° 1016.6 hPa 1.2 m/s 26.6 mm
23:00 12.9° 1024.6 hPa 1.9 m/s 26.8 mm 12.9° 1025.1 hPa 1.8 m/s 12.4° 1018.7 hPa 2.9 m/s 26.8 mm
 07:50     20:45    Daglengte: 12:55 Maandag 06 Apr
02:00 10.4° 1026.0 hPa 2.2 m/s 26.9 mm 10.3° 1026.6 hPa 2.2 m/s 11.9° 1019.3 hPa 2.6 m/s 26.9 mm
05:00 9.8° 1026.7 hPa 2.4 m/s 27.0 mm 9.6° 1027.4 hPa 2.4 m/s 11.8° 1018.8 hPa 3.5 m/s 27.0 mm
08:00 9.1° 1027.5 hPa 2.6 m/s 27.3 mm 8.9° 1028.3 hPa 2.5 m/s 11.8° 1019.3 hPa 3.4 m/s 27.3 mm
11:00 12.8° 1027.5 hPa 2.2 m/s 27.5 mm 12.7° 1028.2 hPa 1.9 m/s 14.2° 1019.7 hPa 5.0 m/s 27.5 mm
14:00 16.4° 1027.4 hPa 1.8 m/s 27.7 mm 16.5° 1028.1 hPa 1.4 m/s 15.2° 1020.1 hPa 6.0 m/s 27.7 mm
17:00 16.9° 1026.2 hPa 1.7 m/s 27.9 mm 17.1° 1026.8 hPa 1.4 m/s 14.4° 1019.5 hPa 5.2 m/s 27.9 mm
20:00 17.3° 1025.0 hPa 1.5 m/s 29.8 mm 17.7° 1025.5 hPa 1.3 m/s 12.6° 1019.5 hPa 3.1 m/s 29.8 mm
23:00 14.2° 1026.2 hPa 1.9 m/s 30.8 mm 14.3° 1026.7 hPa 2.0 m/s 12.4° 1021.0 hPa 1.8 m/s 30.8 mm
 07:48     20:46    Daglengte: 12:58 Dinsdag 07 Apr
02:00 11.1° 1027.2 hPa 2.5 m/s 31.2 mm 11.0° 1027.8 hPa 2.6 m/s 12.6° 1020.9 hPa 1.6 m/s 31.2 mm
08:00 8.2° 1028.2 hPa 2.4 m/s 31.3 mm 7.8° 1028.9 hPa 2.4 m/s 12.1° 1020.0 hPa 2.0 m/s 31.3 mm
14:00 18.8° 1026.5 hPa 2.6 m/s 31.7 mm 18.9° 1027.1 hPa 2.4 m/s 18.1° 1019.6 hPa 4.8 m/s 31.7 mm
20:00 18.3° 1024.0 hPa 2.4 m/s 31.7 mm 18.5° 1024.5 hPa 2.1 m/s 16.6° 1018.6 hPa 5.3 m/s 31.7 mm
 07:47     20:47    Daglengte: 13:00 Woensdag 08 Apr
02:00 10.3° 1026.5 hPa 2.1 m/s 31.8 mm 10.1° 1027.1 hPa 1.8 m/s 13.1° 1019.8 hPa 5.0 m/s 31.8 mm
08:00 8.8° 1026.9 hPa 1.6 m/s 31.9 mm 8.6° 1027.6 hPa 1.3 m/s 11.1° 1019.0 hPa 4.5 m/s 31.9 mm
14:00 17.0° 1026.8 hPa 1.2 m/s 31.9 mm 16.7° 1027.6 hPa 1.0 m/s 19.8° 1018.3 hPa 3.4 m/s 31.9 mm
20:00 17.0° 1024.8 hPa 1.7 m/s 32.0 mm 16.8° 1025.5 hPa 1.4 m/s 19.8° 1016.9 hPa 5.1 m/s 32.0 mm
 07:45     20:48    Daglengte: 13:03 Donderdag 09 Apr
02:00 12.6° 1025.4 hPa 1.1 m/s 32.0 mm 12.4° 1025.9 hPa 1.0 m/s 14.8° 1019.9 hPa 2.7 m/s 32.0 mm
08:00 8.7° 1024.1 hPa 1.4 m/s 32.0 mm 8.3° 1024.7 hPa 1.4 m/s 13.1° 1017.5 hPa 1.2 m/s 32.0 mm
14:00 19.1° 1016.6 hPa 4.8 m/s 32.2 mm 19.1° 1016.6 hPa 4.8 m/s 32.2 mm
20:00 18.6° 1015.9 hPa 4.5 m/s 32.3 mm 18.6° 1015.9 hPa 4.5 m/s 32.3 mm
 07:44     20:49    Daglengte: 13:05 Vrijdag 10 Apr
02:00 11.1° 1021.0 hPa 0.2 m/s 0.2 mm
08:00 9.2° 1021.1 hPa 0.7 m/s 0.2 mm
14:00 17.5° 1020.6 hPa 0.7 m/s 0.5 mm
20:00 17.2° 1019.0 hPa 0.8 m/s 0.7 mm
 07:42     20:50    Daglengte: 13:08 Zaterdag 11 Apr
02:00 10.6° 1022.1 hPa 0.7 m/s 0.3 mm
08:00 8.1° 1022.6 hPa 1.1 m/s 0.1 mm
14:00 17.0° 1021.4 hPa 0.3 m/s 0.2 mm
20:00 16.8° 1019.3 hPa 0.6 m/s 0.6 mm
 07:41     20:51    Daglengte: 13:10 Zondag 12 Apr
02:00 9.9° 1021.7 hPa 1.4 m/s 0.2 mm
08:00 7.7° 1021.2 hPa 1.5 m/s 0.2 mm
14:00 17.4° 1018.8 hPa 0.8 m/s 0.3 mm
20:00 17.1° 1016.2 hPa 0.4 m/s 0.7 mm
 07:39     20:52    Daglengte: 13:13 Maandag 13 Apr
02:00 9.7° 1018.6 hPa 0.8 m/s 0.7 mm
08:00 7.2° 1018.7 hPa 1.0 m/s 0.2 mm
14:00 17.0° 1016.6 hPa 0.3 m/s 0.2 mm
20:00 16.2° 1014.7 hPa 0.9 m/s 0.3 mm
 07:38     20:53    Daglengte: 13:15 Dinsdag 14 Apr
02:00 8.9° 1017.8 hPa 1.1 m/s 0.0 mm
08:00 6.7° 1018.3 hPa 1.3 m/s 0.1 mm
14:00 15.9° 1016.6 hPa 1.1 m/s 0.2 mm
20:00 15.5° 1015.6 hPa 0.7 m/s 0.6 mm
 07:36     20:54    Daglengte: 13:18 Woensdag 15 Apr
02:00 8.3° 1019.2 hPa 1.1 m/s 0.0 mm
FMI Hirlam - 7.5 km EWN WRFDA - 12 km DWD ICON - 7 km GFS - 25 km Basiskaart






























































Updatetijd (Europe/Amsterdam) Resolutie Lengte Stap
FMI Hirlam 01:45, 07:45, 13:45, 19:45 7.5 km 49h 1h
EWN WRFDA 03:30, 09:30, 15:30, 21:30 12 km 73h 1h
DWD ICON 23:45, 05:45, 11:45, 17:45 7 km 75h 1h
GFS 01:45, 07:45, 13:45, 19:45 25 km 237h 3h
30+ mm
25-30 mm
20-25 mm
15-20 mm
10-15 mm
6-10 mm
4-6 mm
2-4 mm
1-2 mm
0.5-1 mm
0.2-0.5 mm
0.1-0.2 mm
30+ mm
25-30 mm
20-25 mm
15-20 mm
10-15 mm
6-10 mm
4-6 mm
2-4 mm
1-2 mm
0.5-1 mm
0.2-0.5 mm
0.1-0.2 mm
Sneeuwval
Natte sneeuw
Hagel
Vorst
30+ mm
25-30 mm
20-25 mm
15-20 mm
10-15 mm
6-10 mm
4-6 mm
2-4 mm
1-2 mm
0.5-1 mm
0.2-0.5 mm
0.1-0.2 mm
Sneeuwval
Natte sneeuw
Hagel
Vorst
Onweer
50 mm
40 mm
30 mm
26 mm
22 mm
18 mm
14 mm
10 mm